[[{"header":{"parameterUnit":"m.s-1","parameterCategory":1,"la1":30.2991,"la2":30.254,"lo1":-89.0895,"lo2":-89.0444,"dy":0.0017,"dx":0.0017,"nx":28,"ny":28,"refTime":"2023-08-09T09:00:00:Z","depth":0,"parameterNumber":2,"parameterNumberName":"U-component_of_WINDS"},"data":[0,0,0,0,0,0,0,0,0,0,0,0,0,0,0,0,0,0,0,0,0,0,0,0,0,0,0,0,0,0,0,0,0,0,0,0,0,0,0,0,0,0,0,0,0,0,0,0,0,0,0,0,0,0,0,0,0,0,3.497,3.4971,0,3.5052,3.5053,3.5054,3.4928,3.4924,3.4919,3.4915,3.5008,3.5014,3.5021,0,0,0,0,0,0,0,0,0,0,0,0,0,3.4714,3.4719,3.497,3.4971,3.4972,3.5052,3.5053,3.5054,3.4929,3.4923,3.4918,3.4913,3.5006,3.5013,3.5021,0,0,0,0,0,0,0,0,0,0,0,0,0,3.4813,3.4721,3.4969,3.4919,3.4915,3.5051,3.5053,3.5054,3.493,3.4923,3.4917,3.491,3.5003,3.5013,3.5022,3.5215,0,0,3.5052,3.5057,0,0,0,0,0,0,0,0,3.4808,3.4823,3.4925,3.4922,3.4918,3.4973,3.4996,3.5108,3.4931,3.4925,3.4915,3.4907,3.5002,3.5012,3.5042,3.5219,3.5223,3.5053,3.5059,3.5063,3.5066,0,0,0,0,0,0,0,3.4801,3.4819,3.5002,3.4927,3.4923,3.4895,3.4902,3.5017,3.5,3.4925,3.4916,3.4927,3.4999,3.5032,3.5043,3.5225,3.5053,3.5062,3.5068,3.5072,3.5567,3.5574,0,0,0,0,0,0,3.4799,3.4814,3.5,3.5005,3.4845,3.4905,3.4912,3.4962,3.4998,3.4997,3.4932,3.492,3.5019,3.5032,3.5046,3.5275,3.5063,3.5073,3.5078,3.556,3.5569,3.5577,0,0,0,0,0,0,3.4794,3.4817,3.4996,3.4907,3.4927,3.4916,3.4973,3.4967,3.5,3.5003,3.5,3.4969,3.5014,3.5032,3.5174,3.5277,3.5077,3.5086,3.5552,3.5563,3.5573,3.5735,0,0,0,0,0,0,3.4787,3.4816,3.4887,3.4909,3.4933,3.5121,3.4979,3.4974,3.5017,3.5002,3.5037,3.5037,3.501,3.516,3.5184,3.5287,3.5094,3.5542,3.5557,3.557,3.5721,3.575,3.5775,0,0,0,0,0,3.4779,3.493,3.4891,3.4914,3.5021,3.5127,3.5141,3.5104,3.5025,3.5098,3.51,3.5036,3.5261,3.5175,3.5201,3.5309,3.5536,3.5553,3.5568,3.5708,3.5744,3.5775,0,0,0,0,0,0,3.4923,3.4932,3.4889,3.5052,3.5089,3.5105,3.5196,3.5144,3.5207,3.5191,3.5146,3.5155,3.5308,3.5322,3.5226,3.5498,3.5386,3.5408,3.5483,3.5518,3.5545,3.5539,3.5102,0,0,0,0,0,3.4973,3.5056,3.5061,3.5204,3.5225,3.5208,3.5253,3.5221,3.526,3.5276,3.5288,3.533,3.5411,3.5465,3.5539,3.5722,3.5729,3.5809,3.5836,3.5859,3.5879,3.598,3.6016,3.5631,3.563,3.563,0,0,3.5079,3.5094,3.515,3.5234,3.5259,3.5349,3.5222,3.5322,3.5389,3.5292,3.5426,3.5437,3.5481,3.5645,3.5718,3.5662,3.5987,3.588,3.5897,3.5906,3.6,3.6037,3.6069,3.5642,3.564,3.5638,0,0,3.5317,3.5336,3.5459,3.5486,3.5526,3.5513,3.5543,3.5567,3.557,3.5704,3.5633,3.5714,3.5853,3.5888,3.5924,3.6177,3.6122,3.6203,3.6347,3.6446,3.6476,3.6503,3.6596,3.6629,3.6223,3.6224,3.6224,0,3.5445,3.5574,3.5529,3.5634,3.5674,3.5588,3.5714,3.5744,3.5807,3.5838,3.5774,3.5947,3.5971,3.6143,3.6205,3.6236,3.6271,3.6199,3.6475,3.6501,3.6526,3.6614,3.6649,3.6233,3.6232,3.6231,3.623,0,3.573,3.5821,3.5916,3.5976,3.6027,3.6142,3.6118,3.6175,3.614,3.6136,3.6275,3.63,3.6379,3.6417,3.6385,3.6586,3.655,3.6481,3.6368,3.6573,3.6655,3.6688,3.6247,3.6244,3.6241,3.6238,0,0,3.6062,3.6095,3.6131,3.6158,3.6196,3.6267,3.638,3.6454,3.6505,3.6552,3.6648,3.6768,3.6704,3.6745,3.6717,3.6803,3.7005,3.6724,3.6724,3.6777,3.7231,3.7284,3.7324,3.6968,3.6974,3.6979,3.7228,0,3.6301,3.6491,3.6455,3.6643,3.6728,3.6648,3.6747,3.6783,3.6782,3.6857,3.6857,3.6943,3.6852,3.6877,3.6958,3.6963,3.7096,3.6944,3.7059,3.7064,3.7052,3.7366,3.7422,3.7656,3.726,3.7265,3.7269,0,3.6605,3.6661,3.6856,3.6882,3.6916,3.7005,3.7071,3.7142,3.7183,3.7176,3.7223,3.7178,3.7294,3.7178,3.7338,3.7236,3.7281,3.7291,3.7299,3.731,3.718,3.7388,3.773,3.7766,3.7319,3.7315,3.7311,0,3.683,3.6954,3.7088,3.7113,3.7146,3.721,3.7228,3.726,3.7308,3.7367,3.7398,3.7471,3.7512,3.7571,3.7549,3.7465,3.7715,3.7596,3.7716,3.7717,3.7773,3.777,3.813,3.78,3.7799,3.7798,3.7798,0,3.7101,3.7225,3.7189,3.7272,3.7409,3.7367,3.7506,3.7513,3.7544,3.7629,3.7565,3.7647,3.7611,3.7692,3.7676,3.7813,3.7832,3.7832,3.7827,3.7839,3.7839,3.7869,3.7853,3.7808,3.7806,3.7804,3.7802,0,3.7376,3.7357,3.7498,3.7516,3.7524,3.7625,3.7642,3.7721,3.7715,3.7824,3.7848,3.784,3.7932,3.7915,3.8017,3.8006,3.8178,3.8152,3.8164,3.8159,3.828,3.827,3.8673,3.8725,3.836,3.8363,3.8366,0,3.7552,3.7644,3.7673,3.7724,3.7745,3.7829,3.7876,3.784,3.7894,3.7947,3.8021,3.8106,3.8172,3.8324,3.8329,3.8408,3.8384,3.852,3.8396,3.8406,3.8389,3.8384,3.8395,3.8545,3.8549,3.8553,3.8556,0,3.7866,3.7852,3.7921,3.7989,3.8047,3.81,3.8146,3.8192,3.816,3.8224,3.8315,3.8367,3.8471,3.8558,3.8631,3.8652,3.8601,3.8594,3.8627,3.8641,3.8645,3.8647,3.8234,3.8586,3.8583,3.858,3.8579,3.8578,3.8098,3.8177,3.821,3.8291,3.8321,3.8366,3.8442,3.8445,3.852,3.8599,3.8574,3.8679,3.872,3.8812,3.8842,3.8926,3.8876,3.8922,3.8934,3.8947,3.8962,3.863,3.8939,3.8938,3.8937,3.8937,3.8936,0,3.841,3.8427,3.8501,3.8567,3.8632,3.8574,3.8623,3.8682,3.8774,3.8815,3.8881,3.8988,3.9073,3.9085,3.9166,3.9231,3.921,3.9254,3.925,3.9256,3.9001,3.8966,3.927,3.927,3.927,3.927,3.927,3.927,3.858,3.8712,3.8703,3.8851,3.8868,3.8968,3.9001,3.9044,3.9076,3.9197,3.9266,3.9272,3.9303,3.9386,3.9462,3.9463,3.9497,3.9551,3.9545,3.9307,3.9274,3.9242,3.9209,3.9559,3.9559,3.9792,3.9795,3.9796]},{"header":{"parameterUnit":"m.s-1","parameterCategory":1,"la1":30.2991,"la2":30.254,"lo1":-89.0895,"lo2":-89.0444,"dy":0.0017,"dx":0.0017,"nx":28,"ny":28,"refTime":"2023-08-09T09:00:00:Z","depth":0,"parameterNumber":3,"parameterNumberName":"V-component_of_WINDS"},"data":[0,0,0,0,0,0,0,0,0,0,0,0,0,0,0,0,0,0,0,0,0,0,0,0,0,0,0,0,0,0,0,0,0,0,0,0,0,0,0,0,0,0,0,0,0,0,0,0,0,0,0,0,0,0,0,0,0,0,4.0626,4.0628,0,4.0844,4.0847,4.0849,4.0829,4.0826,4.0823,4.0819,4.1049,4.1058,4.1067,0,0,0,0,0,0,0,0,0,0,0,0,0,4.0197,4.0205,4.0626,4.0628,4.0631,4.0844,4.0847,4.085,4.083,4.0826,4.0822,4.0818,4.1046,4.1057,4.1068,0,0,0,0,0,0,0,0,0,0,0,0,0,4.0396,4.0207,4.0625,4.0647,4.0651,4.0843,4.0847,4.0851,4.0831,4.0826,4.0821,4.0816,4.1043,4.1056,4.107,4.1257,0,0,4.1112,4.1118,0,0,0,0,0,0,0,0,4.0385,4.0412,4.0641,4.0645,4.065,4.0804,4.078,4.0987,4.0832,4.0763,4.0819,4.0813,4.0972,4.0992,4.1044,4.1268,4.1278,4.1114,4.1122,4.1128,4.1132,0,0,0,0,0,0,0,4.0371,4.0402,4.0712,4.0644,4.065,4.0647,4.067,4.0819,4.0893,4.0768,4.0767,4.0793,4.0974,4.1031,4.1049,4.1281,4.1113,4.1126,4.1134,4.114,4.1671,4.1676,0,0,0,0,0,0,4.0351,4.0391,4.0705,4.0719,4.0502,4.0659,4.0684,4.076,4.0892,4.0907,4.0797,4.0791,4.1009,4.1033,4.1057,4.1286,4.1128,4.1141,4.1149,4.1665,4.1672,4.1678,0,0,0,0,0,0,4.0342,4.038,4.0696,4.0555,4.0595,4.0672,4.0757,4.0767,4.0823,4.0913,4.0927,4.0841,4.1006,4.1038,4.1207,4.1294,4.1147,4.116,4.1658,4.1667,4.1675,4.1744,0,0,0,0,0,0,4.033,4.0376,4.0447,4.0556,4.0602,4.0841,4.0762,4.0775,4.0847,4.0841,4.0958,4.0973,4.1005,4.1187,4.1221,4.131,4.1171,4.1651,4.1662,4.1673,4.1735,4.1754,4.1771,0,0,0,0,0,4.0315,4.0459,4.0451,4.0489,4.0692,4.0846,4.0873,4.0905,4.0854,4.0926,4.0984,4.0969,4.1278,4.1204,4.1243,4.1337,4.1646,4.1659,4.1672,4.1727,4.175,4.1771,0,0,0,0,0,0,4.0359,4.0473,4.0466,4.0649,4.0738,4.0843,4.0935,4.0929,4.1036,4.1026,4.1063,4.109,4.1261,4.1316,4.1232,4.1526,4.1456,4.1477,4.1484,4.1507,4.1525,4.1509,4.1182,0,0,0,0,0,4.039,4.0504,4.0598,4.0751,4.0796,4.0858,4.0926,4.0943,4.1038,4.1076,4.1146,4.124,4.1358,4.1436,4.155,4.1742,4.1768,4.1826,4.1844,4.1859,4.1877,4.1985,4.2012,4.1721,4.1721,4.1721,0,0,4.0456,4.0532,4.0602,4.0762,4.0833,4.0952,4.089,4.1018,4.1108,4.1096,4.126,4.1315,4.1423,4.1605,4.1689,4.1656,4.1963,4.1875,4.1886,4.1897,4.2001,4.2028,4.2053,4.173,4.1728,4.1727,0,0,4.0636,4.0704,4.084,4.0912,4.1019,4.1059,4.1092,4.1198,4.1233,4.1398,4.1392,4.15,4.1703,4.178,4.1846,4.2055,4.2046,4.2091,4.2187,4.2291,4.2314,4.2335,4.2411,4.2438,4.2109,4.211,4.211,0,4.0705,4.0882,4.091,4.104,4.1111,4.1104,4.1242,4.1312,4.1452,4.1502,4.1463,4.1717,4.1789,4.199,4.2041,4.2094,4.2134,4.2079,4.2308,4.2329,4.2349,4.2422,4.245,4.2114,4.2114,4.2113,4.2113,0,4.0961,4.1085,4.1181,4.1315,4.1397,4.153,4.1581,4.1661,4.1671,4.1716,4.1885,4.197,4.2102,4.2151,4.2162,4.2354,4.233,4.2299,4.2229,4.2381,4.245,4.2478,4.2121,4.212,4.2118,4.2117,0,0,4.1177,4.1323,4.1359,4.142,4.1538,4.1635,4.1768,4.1895,4.1964,4.2061,4.2175,4.2347,4.2319,4.2394,4.2414,4.2505,4.2668,4.2463,4.2466,4.2499,4.2886,4.2909,4.2941,4.2661,4.2667,4.2671,4.2877,0,4.137,4.1604,4.1634,4.1844,4.1959,4.1954,4.2071,4.2157,4.2203,4.2309,4.236,4.2482,4.2435,4.248,4.257,4.2629,4.2746,4.2614,4.2771,4.2776,4.2745,4.2977,4.3003,4.3193,4.2905,4.2909,4.2913,0,4.1626,4.1729,4.1949,4.2052,4.2101,4.2206,4.2325,4.2425,4.2524,4.2551,4.2634,4.2643,4.2783,4.2706,4.2902,4.2812,4.2878,4.2916,4.2924,4.2942,4.2854,4.3002,4.3255,4.3284,4.2955,4.2952,4.2949,0,4.1763,4.1956,4.2113,4.2165,4.2288,4.2362,4.2417,4.251,4.2585,4.269,4.2739,4.2859,4.2926,4.3019,4.3061,4.3001,4.3255,4.3181,4.3283,4.3283,4.3338,4.3335,4.3606,4.3378,4.3378,4.3377,4.3377,0,4.1976,4.2112,4.2176,4.2273,4.2425,4.2458,4.2609,4.2662,4.2745,4.2853,4.2857,4.2959,4.3007,4.3117,4.3151,4.3309,4.3339,4.3366,4.3374,4.3367,4.3363,4.3411,4.34,4.3385,4.3383,4.3382,4.3381,0,4.2155,4.2203,4.2374,4.2476,4.2505,4.2613,4.2702,4.2797,4.2841,4.2979,4.3013,4.3084,4.3214,4.3264,4.3424,4.3446,4.3629,4.3625,4.3595,4.3598,4.3697,4.3688,4.4011,4.4055,4.3797,4.3799,4.3801,0,4.2288,4.2392,4.2505,4.2577,4.2634,4.275,4.2826,4.2864,4.2943,4.3063,4.3144,4.3273,4.3378,4.3587,4.3654,4.3776,4.3777,4.3881,4.3795,4.3785,4.378,4.3774,4.3785,4.3898,4.39,4.3902,4.3904,0,4.2521,4.2539,4.2647,4.2764,4.2854,4.2948,4.304,4.3099,4.3151,4.324,4.3372,4.3454,4.3616,4.3745,4.387,4.393,4.3927,4.393,4.3961,4.3955,4.3934,4.3948,4.364,4.3923,4.3921,4.392,4.3919,4.3918,4.2682,4.2774,4.2868,4.2989,4.3061,4.3147,4.3241,4.3297,4.3407,4.3541,4.3557,4.3699,4.3796,4.3964,4.4029,4.4142,4.4115,4.4158,4.417,4.418,4.4188,4.3914,4.4165,4.4164,4.4164,4.4164,4.4163,0,4.2916,4.2976,4.3086,4.3213,4.3309,4.3295,4.3396,4.3477,4.3602,4.3691,4.3795,4.3947,4.4072,4.4149,4.4275,4.4351,4.4353,4.4383,4.4379,4.4393,4.4204,4.4166,4.438,4.438,4.438,4.438,4.438,4.438,4.3048,4.3204,4.3234,4.3427,4.3487,4.3624,4.3683,4.3763,4.3835,4.4005,4.4108,4.4156,4.4242,4.4374,4.4489,4.4508,4.4556,4.4588,4.4606,4.4429,4.4406,4.4385,4.4349,4.4598,4.4598,4.4786,4.4787,4.4789]}]]